Location: Saint Mary
(48.7436°N, 113.4291°W)
Time: 04:24:26
(UTC+00:00)

Tiangong - Pass Details

Date: 05 August 2024
Orbit: 375 x 377 km, 41.5° (Epoch: 12 September)

Event Time Altitude Azimuth Distance (km) Brightness Sun altitude
Rises 03:34:35 0° 258° (WSW) 2,290 2.6 -4.9°
Reaches altitude 10° 03:37:10 10° 237° (WSW) 1,426 1.1 -5.3°
Maximum altitude 03:39:20 17° 195° (SSW) 1,081 0.0 -5.5°
Drops below altitude 10° 03:41:29 10° 152° (SSE) 1,412 0.2 -5.8°
Enters shadow 03:42:18 - 143° (SE) 1,657 0.5 -6.0°
